#timestamp,LO_Frequency,Hit 
1498690815.7,286045344.8,N
1498690835.5,286045340.5,N
1498690855.3,286045341.0,N
1498690875.2,286045341.8,N
1498690895.9,286045340.7,N
1498690915.7,286045341.3,N
1498690935.6,286045339.5,N
1498690955.4,286045339.3,N
1498690975.2,286045340.8,N
1498690995.1,286045341.2,N
1498690996.0,286045341.2,N
1498691015.8,286045341.1,N
1498691035.6,286045342.9,N
1498691055.5,286045343.4,N
1498691075.3,286045340.5,N
1498691095.1,286045340.9,N
1498691115.9,286045345.2,N
1498691135.7,286045342.3,N
1498691155.5,286045343.1,N
1498691175.4,286045343.2,N
1498691195.2,286045341.5,N
1498691215.0,286045341.6,N
1498691215.9,286045341.6,N
1498691235.8,286045341.6,N
1498691255.6,286045341.7,N
1498691275.4,286045341.7,N
1498691295.3,286045343.6,N
1498691315.1,286045342.9,N
1498691316.0,286045342.9,N
1498691335.8,286045340.5,N
1498691355.7,286045343.8,N
1498691375.5,286045346.8,N
1498691395.3,286045345.9,N
1498691415.2,286045345.6,N
1498691435.9,286045345.4,N
1498691455.7,286045344.2,N
1498691475.6,286045346.4,N
1498691495.4,286045344.0,N
1498691515.2,286045344.2,N
1498691535.1,286045346.8,N
1498691536.0,286045346.8,N
1498691555.8,286045344.0,N
1498691575.6,286045343.9,N
1498691595.5,286045345.6,N
1498691615.3,286045345.8,N
1498691635.1,286045345.9,N
1498691655.9,286045345.3,N
1498691675.7,286045347.8,N
1498691695.5,286045348.4,N
1498691715.4,286045346.6,N
1498691735.2,286045345.7,N
1498691755.0,286045347.8,N
1498691755.9,286045347.8,N
1498691775.8,286045350.0,N
1498691795.6,286045347.7,N
1498691815.4,286045345.3,N
1498691835.3,286045348.0,N
1498691855.1,286045348.3,N
1498691856.0,286045348.3,N
1498691875.8,286045347.7,N
1498691895.7,286045348.4,N
1498691915.5,286045345.6,N
1498691935.3,286045346.3,N
1498691955.2,286045346.3,N
1498691975.9,286045348.0,N
1498691995.7,286045349.9,N
1498692015.6,286045349.9,N
1498692035.4,286045348.4,N
1498692055.2,286045346.5,N
1498692075.1,286045346.2,N
1498692076.0,286045346.2,N
1498692095.8,286045344.2,N
1498692115.6,286045346.3,N
1498692135.5,286045345.5,N
1498692155.3,286045344.0,N
1498692175.1,286045344.2,N
1498692195.9,286045344.3,N
1498692215.7,286045344.9,N
1498692235.5,286045344.0,N
1498692255.4,286045344.7,N
1498692275.2,286045342.3,N
1498692295.0,286045344.5,N
1498692295.9,286045344.5,N
1498692315.8,286045345.2,N
1498692335.6,286045344.7,N
1498692355.4,286045344.3,N
1498692375.3,286045346.5,N
1498692395.1,286045348.3,N
1498692396.0,286045348.3,N
1498692415.8,286045345.4,N
1498692435.7,286045349.3,N
1498692455.5,286045350.0,N
1498692475.3,286045349.4,N
1498692495.2,286045348.2,N
1498692515.9,286045345.8,N
1498692535.7,286045346.1,N
1498692555.6,286045347.7,N
1498692575.4,286045347.2,N
1498692595.2,286045347.1,N
1498692615.1,286045347.8,N
1498692616.0,286045347.8,N
1498692635.8,286045347.7,N
1498692655.6,286045348.2,N
1498692675.5,286045348.2,N
1498692695.3,286045347.9,N
1498692715.1,286045345.6,N
1498692735.9,286045344.0,N
1498692755.7,286045346.1,N
1498692775.5,286045345.7,N
1498692795.4,286045345.8,N
1498692815.2,286045348.0,N
1498692835.0,286045348.0,N
1498692835.9,286045348.0,N
1498692855.8,286045349.8,N
1498692875.6,286045347.1,N
1498692895.4,286045347.8,N
1498692915.3,286045347.1,N
1498692935.1,286045346.0,N
1498692936.0,286045346.0,N
1498692955.8,286045344.3,N
1498692975.7,286045344.3,N
1498692995.5,286045344.2,N
1498693015.3,286045345.8,N
1498693035.2,286045347.8,N
1498693055.9,286045347.7,N
1498693075.7,286045345.5,N
1498693095.6,286045346.5,N
1498693115.4,286045348.3,N
1498693135.2,286045345.8,N
1498693155.1,286045345.5,N
1498693156.0,286045345.5,N
1498693175.8,286045347.9,N
1498693195.6,286045349.2,N
1498693215.5,286045347.8,N
1498693235.3,286045347.4,N
1498693255.1,286045351.5,N
1498693275.9,286045352.5,N
1498693295.7,286045352.5,N
1498693315.5,286045351.5,N
1498693335.4,286045347.0,N
1498693355.2,286045349.2,N
1498693375.0,286045349.4,N
1498693375.9,286045349.4,N
1498693395.8,286045349.9,N
1498693415.6,286045347.0,N
1498693435.4,286045348.1,N
1498693455.3,286045347.6,N
1498693475.1,286045347.1,N
1498693476.0,286045347.1,N
1498693495.8,286045347.7,N
1498693515.7,286045349.6,N
1498693535.5,286045346.9,N
1498693555.3,286045348.7,N
1498693575.2,286045351.2,N
1498693595.9,286045348.6,N
1498693615.7,286045351.1,N
1498693635.6,286045349.5,N
1498693655.4,286045351.4,N
1498693675.2,286045347.6,N
1498693695.1,286045347.5,N
1498693696.0,286045347.5,N
1498693715.8,286045347.0,N
1498693735.6,286045348.0,N
1498693755.5,286045349.9,N
1498693775.3,286045347.1,N
1498693795.1,286045349.8,N
1498693815.9,286045351.3,N
1498693835.7,286045347.0,N
1498693855.5,286045349.9,N
1498693875.4,286045350.0,N
1498693895.2,286045346.9,N
1498693915.0,286045347.4,N
1498693915.9,286045347.4,N
1498693935.8,286045347.5,N
1498693955.6,286045347.4,N
1498693975.4,286045348.1,N
1498693995.3,286045349.6,N
1498694015.1,286045349.3,N
1498694016.0,286045349.3,N
1498694035.8,286045349.0,N
1498694055.7,286045350.8,N
1498694075.5,286045351.0,N
1498694095.3,286045349.6,N
1498694145.2,286045352.8,Y
1498694155.1,286046142.2,N
1498694175.8,286046996.1,N
1498694195.7,286046995.0,N
1498694215.5,286046995.6,N
1498694235.3,286046995.8,N
1498694255.2,286046995.2,N
1498694275.9,286046995.2,N
1498694295.7,286046995.6,N
1498694315.6,286046995.0,N
1498694335.4,286046995.8,N
1498694355.2,286046995.4,N
1498694375.1,286046996.4,N
1498694376.0,286046996.4,N
1498694395.8,286046994.0,N
